Flag for Germany Weather past 2 weeks in Rheda-Wiedenbrück, North Rhine-Westphalia, Germany

Now
30 °F

Passing clouds.


Feels Like: 22 °F
Forecast: 30 / 36 °F
Wind: 9 mph from South

Location: Paderborn / Lippstadt

Current Time: Feb 1, 2015 at 5:08:42 AM

Latest Report: Feb 1, 2015 at 4:20 AM


Visibility: N/A

Pressure: 29.12 "Hg

Humidity: 86%

Dew point: 27 °F

Location of Rheda-WiedenbrückLocation

Historic Weather in Rheda-Wiedenbrück — Graph

°F

Rheda-Wiedenbrück temperature yesterday

Maximum temperature yesterday: 36 °F (at 1:50 PM)
Minimum temperature yesterday: 30 °F (at 12:20 AM)
Average temperature yesterday: 32 °F

Past Weeks' High & Low Weather Summary

 TemperatureHumidityPressure
High39 °F (Jan 17, 2:20 PM)100% (Jan 17, 6:20 AM)30.36 "Hg (Jan 17, 6:20 AM)
Low21 °F (Jan 24, 4:20 AM)60% (Jan 17, 3:20 PM)28.68 "Hg (Jan 30, 1:20 AM)
Average32 °F89%29.79 "Hg
* Reported Jan 17 3:20 AM — Feb 1 3:50 AM, Rheda-Wiedenbrück, Weather by CustomWeather, © 2014

Note: Actual official high and low records may vary slightly from our data, if they occured in-between our weather recording intervals... More about our weather records

Advertising

Rheda-Wiedenbrück weather history for previous 24 hours

 ConditionsComfort  
Time TempWeatherWind HumidityBarometerVisibility
3:50 AM
Feb 1
30 °FPassing clouds.12 mph93%29.12 "HgN/A
3:20 AM30 °FPassing clouds.12 mph93%29.12 "HgN/A
2:50 AM30 °FPassing clouds.12 mph93%29.12 "HgN/A
2:20 AM30 °FPassing clouds.9 mph93%29.12 "HgN/A
1:50 AM30 °FPartly cloudy.9 mph93%29.12 "HgN/A
1:20 AM30 °FPassing clouds.10 mph93%29.12 "HgN/A
12:50 AM30 °FPassing clouds.10 mph93%29.12 "HgN/A
12:20 AM30 °FPassing clouds.12 mph93%29.09 "HgN/A
11:50 PM
Jan 31
30 °FPassing clouds.12 mph93%29.09 "HgN/A
11:20 PM30 °FPassing clouds.10 mph93%29.09 "HgN/A
10:50 PM30 °FPassing clouds.10 mph93%29.09 "HgN/A
10:20 PM30 °FPassing clouds.10 mph93%29.09 "HgN/A
9:50 PM30 °FPassing clouds.9 mph93%29.09 "HgN/A
9:20 PM30 °FPassing clouds.12 mph93%29.09 "HgN/A
8:50 PM30 °FPassing clouds.12 mph93%29.09 "HgN/A
8:20 PM30 °FPassing clouds.12 mph93%29.06 "HgN/A
7:50 PM32 °FPassing clouds.10 mph93%29.06 "HgN/A
7:20 PM32 °FPassing clouds.10 mph100%29.06 "HgN/A
6:50 PM32 °FPassing clouds.12 mph100%29.03 "HgN/A
6:20 PM32 °FPassing clouds.12 mph100%29.03 "HgN/A
5:50 PM32 °FPassing clouds.10 mph100%29.03 "HgN/A
5:20 PM32 °FPassing clouds.12 mph100%29.03 "HgN/A
4:20 PM34 °FBroken clouds.9 mph93%29.00 "HgN/A
3:50 PM34 °FPartly sunny.9 mph93%29.00 "HgN/A
3:20 PM34 °FPartly sunny.8 mph93%29.00 "HgN/A
2:50 PM36 °FPartly sunny.7 mph87%29.00 "HgN/A
2:20 PM36 °FPartly sunny.5 mph87%28.97 "Hg6 mi
1:50 PM36 °FPartly sunny.8 mph87%28.97 "HgN/A
1:20 PM34 °FPartly sunny.9 mph93%28.97 "Hg6 mi
12:50 PM34 °FPartly sunny.8 mph93%28.97 "Hg6 mi
12:20 PM34 °FPartly sunny.8 mph100%28.97 "Hg6 mi
11:50 AM34 °FPartly sunny.6 mph100%28.97 "Hg6 mi
11:20 AM34 °FPartly sunny.6 mph100%28.94 "Hg5 mi
10:50 AM34 °FPartly sunny.6 mph93%28.94 "Hg5 mi
10:20 AM32 °FPartly sunny.9 mph100%28.94 "Hg5 mi
9:50 AM32 °FPartly sunny.8 mph100%28.94 "Hg5 mi
9:20 AM32 °FPartly sunny.9 mph100%28.91 "Hg4 mi
8:50 AM32 °FPartly sunny.9 mph100%28.91 "Hg4 mi
8:20 AM32 °FPartly sunny.9 mph100%28.91 "Hg4 mi
7:50 AM32 °FPassing clouds.9 mph100%28.88 "Hg4 mi
7:20 AM32 °FLight snow. Passing clouds.10 mph100%28.88 "Hg4 mi
6:50 AM32 °FLight snow. Ice fog.10 mph100%28.88 "Hg2 mi
6:20 AM32 °FLight snow. Ice fog.10 mph100%28.85 "Hg3 mi
5:50 AM32 °FLight snow. Passing clouds.12 mph100%28.85 "Hg4 mi
5:20 AM32 °FLight snow. Passing clouds.12 mph100%28.85 "Hg4 mi
Weather by CustomWeather, © 2014

See weather overviewHow to use our weather pages